Regional Weather Roundup
Issued by NWS

Home | Current Version | Previous Version | Graphics & Text | Print | Product List | Glossary On
Versions: 1 2 3 4 5 6 7 8 9 10 11 12 13 14 15 16 17 18 19 20 21 22 23 24 25 26 27 28 29 30 31 32 33 34 35 36 37 38 39 40 41 42 43 44 45 46 47 48 49 50
000
ASUS43 KIND 172359
RWRIN

WEATHER ROUNDUP FOR INDIANA
NATIONAL WEATHER SERVICE INDIANAPOLIS IN
700 PM EST FRI NOV 17 2017

NOTE: "FAIR" INDICATES FEW OR NO CLOUDS BELOW 12,000 FEET WITH NO
SIGNIFICANT WEATHER AND/OR OBSTRUCTIONS TO VISIBILITY.

* - STATION DOES NOT REPORT WEATHER SUCH AS PRECIPITATION OR FOG.

+ - STATION NOT QUALITY CONTROLLED BY THE NATIONAL WEATHER SERVICE.
    USE DATA WITH CAUTION...ESPECIALLY DEWPOINT AND RELATIVE
    HUMIDITY OBSERVATIONS.

INZ001>003-010>013-019-020-180100-
NORTHWEST INDIANA

CITY           SKY/WX    TMP DP  RH WIND       PRES   REMARKS
GARY /AIRPORT/ TSTM      46  36  66 S20G31    29.71F
KNOX *+        CLOUDY    45  34  65 SE17      29.77F
MICHIGAN CITY+ CLOUDY    45  32  61 SE12G24   29.72F
MONTICELLO +   CLOUDY    46  32  59 SE10      29.77F
6HR MIN TEMP:  43; 6HR MAX TEMP:  46;

RENSSELAER +   CLOUDY    45  32  61 SE17      29.71F

$$

LMZ046-743>745-180100-
SOUTHERN LAKE MICHIGAN

STATION/POSITION TIME  TEMP    WIND        PRES    WAVE
                       AIR SEA DIR/SP/G            HT
                 (UTC) (F)     (DEG/KT/KT) (MB)    (FT)
BURNS HARBOR     2340   46     160/ 12/ 27 1006.4F
MICHIGAN CITY    2330   45     140/ 20/ 23   N/A

$$

INZ004-005-014>016-021>024-180100-
NORTH CENTRAL INDIANA

CITY           SKY/WX    TMP DP  RH WIND       PRES   REMARKS
ELKHART        CLOUDY    45  32  61 SE12G17   29.78F
GOSHEN         CLOUDY    45  33  63 SE16      29.79F
6HR MIN TEMP:  44; 6HR MAX TEMP:  45; 6HR PCP: TRACE;

PERU/GRISSOM   CLOUDY    46  34  64 S17       29.79F
6HR MIN TEMP:  44; 6HR MAX TEMP:  47;

SOUTH BEND     CLOUDY    45  35  68 SE20G26   29.77F
6HR MIN TEMP:  42; 6HR MAX TEMP:  45; 6HR PCP: TRACE;

WARSAW +       CLOUDY    45  34  65 SE9       29.81F

$$

INZ006>009-017-018-025>027-180100-
NORTHEAST INDIANA

CITY           SKY/WX    TMP DP  RH WIND       PRES   REMARKS
AUBURN +       LGT RAIN  43  34  70 SE7       29.87F
FORT WAYNE     CLOUDY    45  35  68 SE13      29.88F
6HR MIN TEMP:  45; 6HR MAX TEMP:  46;

KENDALLVILLE + CLOUDY    43  35  72 S15       29.85F

$$

INZ028-029-035-036-043>045-051>053-180100-
WEST CENTRAL INDIANA

CITY           SKY/WX    TMP DP  RH WIND       PRES   REMARKS
CRAWFORDSVL +  PTCLDY    44  33  65 SE14G21   29.80F
6HR MIN TEMP:  41; 6HR MAX TEMP:  45;

GREENCASTLE +  CLOUDY    45  32  61 S13       29.84F
LAFAYETTE      CLOUDY    47  33  58 S9G25     29.78F
6HR MIN TEMP:  43; 6HR MAX TEMP:  47;

TERRE HAUTE    CLOUDY    48  33  56 S14G22    29.82F
6HR MIN TEMP:  42; 6HR MAX TEMP:  49;


$$

INZ030>032-037>040-046>048-054>057-064-065-180100-
CENTRAL INDIANA

CITY           SKY/WX    TMP DP  RH WIND       PRES   REMARKS
COLUMBUS       MOCLDY    46  30  53 S9        29.91F
FRANKFORT +    CLOUDY    47  35  62 S16G22    29.81F
6HR MIN TEMP:  46; 6HR MAX TEMP:  49;

INDIANAPOLIS   CLOUDY    46  33  60 SE16      29.85F
6HR MIN TEMP:  42; 6HR MAX TEMP:  48;

-EAGLE CREEK   MOCLDY    47  31  53 SE12G21   29.84F
6HR MIN TEMP:  43; 6HR MAX TEMP:  48;

KOKOMO +       CLOUDY    46  34  62 SE18      29.82F
6HR MIN TEMP:  43; 6HR MAX TEMP:  47;

MT COMFORT *+  CLOUDY    45  37  76 S12G17    29.87F
SHELBYVILLE    CLOUDY    47  33  58 SE14      29.88F
6HR MIN TEMP:  45; 6HR MAX TEMP:  50;


$$

INZ033-034-041-042-049-050-058-059-180100-
EAST CENTRAL INDIANA

CITY           SKY/WX    TMP DP  RH WIND       PRES   REMARKS
MUNCIE         CLOUDY    47  32  56 S10       29.88F
6HR MIN TEMP:  46; 6HR MAX TEMP:  49;

RICHMOND +     CLOUDY    41  34  75 SE13      29.93F

$$

INZ060-061-067>069-081>083-085>088-180100-
SOUTHWEST INDIANA

CITY           SKY/WX    TMP DP  RH WIND       PRES   REMARKS
EVANSVILLE     CLOUDY    51  41  68 SE9       29.86F
6HR MIN TEMP:  40; 6HR MAX TEMP:  51;

HUNTINGBURG +  CLOUDY    50  39  66 SE14      29.88F
6HR MIN TEMP:  45; 6HR MAX TEMP:  50;


$$

INZ062-063-066-070>080-084-089>092-180100-
SOUTH CENTRAL AND SOUTHEAST INDIANA

CITY           SKY/WX    TMP DP  RH WIND       PRES   REMARKS
BLOOMINGTON    CLOUDY    48  33  56 S10       29.87F
6HR MIN TEMP:  43; 6HR MAX TEMP:  48;

MADISON *+     MOCLDY    46  34  61 SE8       29.95F
SEYMOUR +      CLOUDY    48  34  57 SE7       29.91F

$$





USA.gov is the U.S. government's official web portal to all federal, state and local government web resources and services.